Location: Chemnitz
(49.5500°N, 11.5830°E)
Time: 12:38:06
(UTC+02:00)

ISS - Pass Details

Date: 07 January 2018
Orbit: 402 x 408 km, 51.6° (Epoch: 20 July)

Event Time Altitude Azimuth Distance (km) Brightness Sun altitude
Exits shadow 04:39:26 - 73° (ENE) 1,585 0.0 -33.0°
Enters shadow 05:36:18 -67° 266° (W) 12,175 3.6 -23.8°
Maximum altitude 06:12:43 60° 6° (N) 483 -3.6 -18.0°
